User: anonymous   Login
Location: Laguna de la Cañada del Gallo
(40.3974°N, 5.2096°W)
Time: 16:21:53
(UTC+00:00)
Language:

SJ-6B - Orbit

View from above orbital plane
View from above orbital plane
View from above satellite
View from above satellite

Ground track
Ground track

The orbit data is extracted from the following two-line orbital elements,

1 28415U 04035C   24176.72838975  .00005775  00000-0  29834-3 0  9994
2 28415  97.4218 210.2214 0042116 359.7021   0.4179 15.15897449 85104
Epoch (UTC): 24 June 2024 17:28:52
Eccentricity: 0.0042116
inclination: 97.4218°
perigee height: 489 km
apogee height: 547 km
right ascension of ascending node: 210.2214°
argument of perigee: 359.7021°
revolutions per day: 15.15897449
mean anomaly at epoch: 0.4179°
orbit number at epoch: 8510

The dashed part of the orbit path shows where the satellite is in the earth's shadow,  

DLR